User: anonymous   Login
Location: Melizzano
(41.1500°N, 14.5000°E)
Time: 21:14:18
(UTC+00:00)
Language:

CZ-2C R/B - Orbit

View from above orbital plane
View from above orbital plane
View from above satellite
View from above satellite

Ground track
Ground track

The orbit data is extracted from the following two-line orbital elements,

1 37766U 11039B   21212.36824725  .00000078  00000-0  23193-4 0  9995
2 37766  98.3278  78.9564 0045545 177.4551 182.6893 14.66586189535352
Epoch (UTC): 31 July 2021 08:50:16
Eccentricity: 0.0045545
inclination: 98.3278°
perigee height: 640 km
apogee height: 704 km
right ascension of ascending node: 78.9564°
argument of perigee: 177.4551°
revolutions per day: 14.66586189
mean anomaly at epoch: 182.6893°
orbit number at epoch: 53535

The dashed part of the orbit path shows where the satellite is in the earth's shadow,  

DLR